CW3873 Weather Reports


time (UTC)temp
F
wind
direction
speed
knots
gust
knots
rain 1hr
in
rain 24hr
in
rain mn
in
humidity
%
barometer
mb
20260508043804 59 288 1.7 4.3 0.00 0.00 0.00 15 1016.5
20260508043304 60 288 1.7 2.6 0.00 0.00 0.00 15 1016.5
20260508042804 60 279 0.0 2.6 0.00 0.00 0.00 15 1016.4
20260508041804 60 279 0.9 6.1 0.00 0.00 0.00 15 1016.4
20260508041304 60 273 1.7 7.8 0.00 0.00 0.00 15 1016.5
20260508040804 61 273 0.9 7.0 0.00 0.00 0.00 14 1016.3
20260508040304 61 275 3.5 7.8 0.00 0.00 0.00 14 1016.3
20260508035804 62 288 0.9 5.2 0.00 0.00 0.00 14 1016.4
20260508035306 62 284 2.6 6.1 0.00 0.00 0.00 13 1016.3
20260508034804 62 296 2.6 4.3 0.00 0.00 0.00 13 1016.3
20260508034304 63 298 0.9 4.3 0.00 0.00 0.00 13 1016.2
20260508033304 63 300 1.7 4.3 0.00 0.00 0.00 13 1016.0
20260508032804 64 301 0.0 1.7 0.00 0.00 0.00 13 1016.0
20260508032306 64 301 0.9 2.6 0.00 0.00 0.00 13 1015.9
20260508031803 65 302 0.0 0.9 0.00 0.00 0.00 13 1015.8
20260508031303 65 302 0.0 0.9 0.00 0.00 0.00 12 1015.6
20260508030803 66 302 0.0 0.9 0.00 0.00 0.00 12 1015.6
20260508030304 67 302 0.0 0.9 0.00 0.00 0.00 11 1015.5
20260508025804 67 302 0.0 1.7 0.00 0.00 0.00 11 1015.5
20260508024304 68 305 0.9 4.3 0.00 0.00 0.00 10 1015.1
20260508023803 68 320 0.9 4.3 0.00 0.00 0.00 9 1015.1
20260508023304 69 324 1.7 7.0 0.00 0.00 0.00 10 1015.0
20260508022306 70 306 0.0 1.7 0.00 0.00 0.00 13 1015.0
20260508021803 70 306 0.0 0.0 0.00 0.00 0.00 14 1014.9
20260508021303 70 306 0.0 0.9 0.00 0.00 0.00 13 1014.9
20260508020304 71 285 0.9 6.1 0.00 0.00 0.00 13 1014.8
20260508015804 71 250 0.0 1.7 0.00 0.00 0.00 13 1014.7
20260508015306 71 250 1.7 6.1 0.00 0.00 0.00 13 1014.6
20260508014804 72 250 2.6 7.0 0.00 0.00 0.00 13 1014.6
20260508014304 72 250 1.7 7.8 0.00 0.00 0.00 13 1014.6
20260508013804 72 250 1.7 4.3 0.00 0.00 0.00 13 1014.5
20260508012307 73 250 2.6 6.1 0.00 0.00 0.00 13 1014.4
20260508011804 73 250 2.6 6.1 0.00 0.00 0.00 12 1014.5
20260508011304 73 277 1.7 5.2 0.00 0.00 0.00 12 1014.4
20260508010804 73 277 0.9 2.6 0.00 0.00 0.00 12 1014.4
20260508010303 74 277 1.7 2.6 0.00 0.00 0.00 12 1014.5
20260508005804 74 277 0.9 5.2 0.00 0.00 0.00 12 1014.1
20260508005306 74 277 0.9 6.1 0.00 0.00 0.00 11 1014.1
20260508004804 74 277 1.7 5.2 0.00 0.00 0.00 11 1014.0
20260508004304 75 277 0.9 5.2 0.00 0.00 0.00 11 1014.1
20260508002804 75 292 1.7 4.3 0.00 0.00 0.00 11 1014.2
20260508002306 76 294 0.9 4.3 0.00 0.00 0.00 11 1014.2
20260508001804 76 294 0.9 6.1 0.00 0.00 0.00 11 1014.3
20260508001304 76 292 1.7 7.8 0.00 0.00 0.00 11 1014.2
20260508000804 76 275 0.9 2.6 0.00 0.00 0.00 11 1014.2
20260507235803 76 275 1.7 7.8 0.00 0.00 0.00 11 1014.2
20260507235306 76 283 0.9 8.7 0.00 0.00 0.00 11 1014.3
20260507234805 76 283 4.3 8.7 0.00 0.00 0.00 11 1014.3
20260507234304 76 248 0.0 8.7 0.00 0.00 0.00 11 1014.3
20260507233804 77 248 4.3 10.4 0.00 0.00 0.00 11 1014.5
20260507233304 77 248 2.6 7.8 0.00 0.00 0.00 11 1014.6
20260507232804 77 285 0.9 2.6 0.00 0.00 0.00 10 1014.6
20260507232306 76 290 1.7 4.3 0.00 0.00 0.00 10 1014.6
20260507231805 76 296 0.0 4.3 0.00 0.00 0.00 10 1014.6
20260507231305 76 325 1.7 7.0 0.00 0.00 0.00 10 1014.8
20260507230804 76 332 2.6 7.8 0.00 0.00 0.00 10 1014.8
20260507225306 76 341 4.3 7.8 0.00 0.00 0.00 10 1014.7
20260507224804 76 344 7.8 10.4 0.00 0.00 0.00 10 1014.6
20260507224304 76 47 5.2 10.4 0.00 0.00 0.00 11 1014.7
20260507223805 76 204 1.7 8.7 0.00 0.00 0.00 11 1014.8
20260507223305 77 207 2.6 5.2 0.00 0.00 0.00 10 1015.2
20260507222804 77 97 3.5 8.7 0.00 0.00 0.00 10 1015.2
20260507222306 77 114 4.3 8.7 0.00 0.00 0.00 10 1015.4
20260507221304 77 164 5.2 11.3 0.00 0.00 0.00 9 1015.5
20260507220804 77 202 2.6 7.8 0.00 0.00 0.00 10 1015.6
20260507220304 77 187 1.7 7.8 0.00 0.00 0.00 10 1015.7
20260507215804 77 188 0.9 2.6 0.00 0.00 0.00 9 1015.5
20260507215306 77 119 4.3 7.0 0.00 0.00 0.00 9 1015.6
20260507214805 77 66 4.3 7.8 0.00 0.00 0.00 9 1015.6
20260507214304 77 47 1.7 6.1 0.00 0.00 0.00 11 1015.7
20260507213805 77 67 2.6 7.0 0.00 0.00 0.00 11 1015.9
20260507213305 77 101 3.5 7.0 0.00 0.00 0.00 11 1016.0
20260507212307 76 24 1.7 7.0 0.00 0.00 0.00 10 1016.3
20260507210804 76 90 1.7 6.1 0.00 0.00 0.00 10 1016.5
20260507210304 77 82 3.5 7.8 0.00 0.00 0.00 9 1016.7
20260507205306 77 163 0.0 5.2 0.00 0.00 0.00 12 1016.9
20260507204804 76 355 0.0 6.1 0.00 0.00 0.00 13 1017.1
20260507204304 76 49 2.6 10.4 0.00 0.00 0.00 12 1017.2
20260507203805 77 56 2.6 7.0 0.00 0.00 0.00 12 1017.2
20260507203304 76 238 1.7 6.1 0.00 0.00 0.00 12 1017.3
20260507202804 76 192 0.9 2.6 0.00 0.00 0.00 13 1017.5
20260507202306 76 184 2.6 7.8 0.00 0.00 0.00 12 1017.4
20260507201805 76 32 3.5 10.4 0.00 0.00 0.00 12 1017.5
20260507201305 76 232 4.3 7.8 0.00 0.00 0.00 14 1017.6
20260507200304 75 164 2.6 5.2 0.00 0.00 0.00 15 1017.9
20260507195805 75 137 1.7 7.0 0.00 0.00 0.00 14 1018.0
20260507195305 75 13 0.9 2.6 0.00 0.00 0.00 15 1018.0
20260507194804 75 168 4.3 7.8 0.00 0.00 0.00 15 1018.1
20260507194304 74 6 4.3 7.8 0.00 0.00 0.00 15 1018.1
20260507193805 74 225 1.7 7.0 0.00 0.00 0.00 16 1018.4
20260507192804 73 194 0.9 10.4 0.00 0.00 0.00 17 1018.6
20260507191804 71 298 0.9 2.6 0.00 0.00 0.00 19 1018.8
20260507191304 71 168 2.6 8.7 0.00 0.00 0.00 19 1018.9
20260507190805 70 164 5.2 10.4 0.00 0.00 0.00 19 1019.0
20260507190305 69 77 1.7 5.2 0.00 0.00 0.00 20 1019.1
20260507185305 68 32 2.6 7.8 0.00 0.00 0.00 20 1019.3
20260507184804 68 43 1.7 7.0 0.00 0.00 0.00 21 1019.4
20260507184304 68 36 2.6 8.7 0.00 0.00 0.00 21 1019.6
20260507183804 69 45 4.3 7.0 0.00 0.00 0.00 20 1019.6
20260507183305 68 42 1.7 6.1 0.00 0.00 0.00 21 1019.8
20260507182804 68 37 1.7 5.2 0.00 0.00 0.00 21 1020.0
20260507182306 67 43 0.9 5.2 0.00 0.00 0.00 22 1020.0
20260507181804 66 36 1.7 7.0 0.00 0.00 0.00 23 1020.1
20260507181304 66 35 3.5 7.0 0.00 0.00 0.00 22 1020.1
20260507180804 66 14 1.7 4.3 0.00 0.00 0.00 23 1020.3
20260507175804 65 61 0.9 7.8 0.00 0.00 0.00 24 1020.4
20260507175306 65 6 1.7 5.2 0.00 0.00 0.00 24 1020.6
20260507174804 64 24 1.7 7.8 0.00 0.00 0.00 24 1020.8
20260507174304 64 28 3.5 7.0 0.00 0.00 0.00 26 1020.8
20260507173804 63 44 2.6 7.0 0.00 0.00 0.00 26 1020.6
20260507172804 62 39 4.3 7.8 0.00 0.00 0.00 26 1020.6
20260507172307 62 348 1.7 7.0 0.00 0.00 0.00 27 1020.7
20260507171804 61 7 0.0 2.6 0.00 0.00 0.00 27 1020.8
20260507171304 61 11 2.6 7.0 0.00 0.00 0.00 28 1021.0
20260507170804 61 19 1.7 7.8 0.00 0.00 0.00 28 1021.1
20260507165306 59 32 5.2 10.4 0.00 0.00 0.00 30 1021.2
20260507164804 59 29 5.2 8.7 0.00 0.00 0.00 31 1021.2
20260507164304 59 29 5.2 8.7 0.00 0.00 0.00 32 1021.4
20260507163804 59 43 3.5 8.7 0.00 0.00 0.00 33 1021.4
20260507163304 59 21 5.2 10.4 0.00 0.00 0.00 33 1021.5
20260507162805 58 14 4.3 8.7 0.00 0.00 0.00 34 1021.4
20260507161804 58 32 2.6 8.7 0.00 0.00 0.00 35 1021.5
20260507161305 58 357 5.2 10.4 0.00 0.00 0.00 34 1021.7
20260507160804 57 18 5.2 8.7 0.00 0.00 0.00 35 1021.6
20260507155306 57 353 4.3 11.3 0.00 0.00 0.00 37 1021.7
20260507154305 56 8 4.3 10.4 0.00 0.00 0.00 38 1021.8
20260507153804 56 20 4.3 8.7 0.00 0.00 0.00 39 1021.8
20260507153304 56 8 5.2 12.2 0.00 0.00 0.00 39 1021.9
20260507152804 55 13 5.2 10.4 0.00 0.00 0.00 40 1021.9
20260507152306 55 354 6.1 11.3 0.00 0.00 0.00 41 1021.9
20260507151804 54 19 2.6 10.4 0.00 0.00 0.00 43 1022.0
20260507151304 54 4 5.2 10.4 0.00 0.00 0.00 43 1022.0
20260507150804 54 356 7.8 12.2 0.00 0.00 0.00 44 1022.1
20260507150304 53 1 4.3 11.3 0.00 0.00 0.00 45 1022.2
20260507145804 53 16 4.3 10.4 0.00 0.00 0.00 45 1022.3
20260507145306 53 353 6.1 12.2 0.00 0.00 0.00 46 1022.3
20260507144804 53 8 6.1 10.4 0.00 0.00 0.00 46 1022.3
20260507144305 52 15 5.2 12.2 0.00 0.00 0.00 47 1022.4
20260507143804 52 354 7.8 11.3 0.00 0.00 0.00 47 1022.3
20260507143304 52 352 5.2 11.3 0.00 0.00 0.00 47 1022.3
20260507142306 51 351 8.7 12.2 0.00 0.00 0.00 48 1022.3
20260507141304 50 355 5.2 12.2 0.00 0.00 0.00 49 1022.3
20260507140804 49 356 7.8 13.9 0.00 0.00 0.00 49 1022.2
20260507140304 49 356 9.6 17.4 0.00 0.00 0.00 50 1022.2
20260507135306 48 351 8.7 15.6 0.00 0.00 0.00 51 1022.2
20260507134804 48 357 9.6 17.4 0.00 0.00 0.00 51 1022.2
20260507134304 48 351 10.4 17.4 0.00 0.00 0.00 52 1022.1
20260507133804 47 2 10.4 17.4 0.00 0.00 0.00 53 1022.1
20260507133303 47 0 7.8 15.6 0.00 0.00 0.00 55 1022.1
20260507132307 46 357 8.7 14.8 0.00 0.00 0.00 56 1022.0
20260507131804 46 353 10.4 15.6 0.00 0.00 0.00 58 1021.9
20260507131304 45 359 10.4 13.9 0.00 0.00 0.00 59 1022.0
20260507130304 45 359 8.7 13.9 0.00 0.00 0.00 60 1022.0
20260507125805 44 0 7.8 13.9 0.00 0.00 0.00 60 1022.1
20260507125306 44 0 9.6 13.9 0.00 0.00 0.00 61 1021.9
20260507124804 44 354 8.7 15.6 0.00 0.00 0.00 62 1022.0
20260507124304 43 357 7.8 13.0 0.00 0.00 0.00 62 1021.9
20260507123803 43 358 8.7 13.0 0.00 0.00 0.00 63 1021.8
20260507123304 43 358 7.8 13.9 0.00 0.00 0.00 63 1021.8
20260507122804 42 354 7.8 12.2 0.00 0.00 0.00 63 1021.7
20260507122307 42 0 7.8 12.2 0.00 0.00 0.00 62 1021.6
20260507121804 42 358 6.1 11.3 0.00 0.00 0.00 61 1021.6
20260507121303 42 0 7.8 7.8 0.00 0.00 0.00 61 1021.6
20260507120804 42 0 7.0 7.8 0.00 0.00 0.00 61 1021.7
20260507120304 42 0 5.2 10.4 0.00 0.00 0.00 60 1021.8
20260507115307 43 0 5.2 10.4 0.00 0.00 0.00 59 1021.8
20260507114804 43 0 5.2 10.4 0.00 0.00 0.00 58 1021.8
20260507113804 43 358 4.3 10.4 0.00 0.00 0.00 57 1021.8
20260507113304 43 344 4.3 10.4 0.00 0.00 0.00 55 1021.7
20260507112804 43 0 4.3 7.0 0.00 0.00 0.00 52 1021.7
20260507112307 44 8 2.6 6.1 0.00 0.00 0.00 51 1021.8
20260507111804 44 25 2.6 7.0 0.00 0.00 0.00 50 1021.8
20260507111304 44 12 1.7 5.2 0.00 0.00 0.00 49 1021.7
20260507110804 44 357 2.6 5.2 0.00 0.00 0.00 49 1021.8
20260507110304 44 352 2.6 6.1 0.00 0.00 0.00 48 1021.8
20260507105803 45 359 2.6 7.0 0.00 0.00 0.00 47 1021.8
20260507104804 45 355 2.6 7.8 0.00 0.00 0.00 45 1021.9
20260507104304 45 10 4.3 7.8 0.00 0.00 0.00 45 1021.9
20260507103804 45 353 6.1 10.4 0.00 0.00 0.00 45 1021.9
20260507103304 45 6 3.5 8.7 0.00 0.00 0.00 43 1021.7
20260507102804 45 7 1.7 8.7 0.00 0.00 0.00 43 1021.7
20260507101804 45 358 4.3 11.3 0.00 0.00 0.00 39 1021.6
20260507100304 45 355 4.3 10.4 0.00 0.00 0.00 35 1021.4
20260507095804 45 343 6.1 10.4 0.00 0.00 0.00 35 1021.3
20260507095306 45 3 4.3 8.7 0.00 0.00 0.00 35 1021.5
20260507094303 45 349 5.2 10.4 0.00 0.00 0.00 34 1021.5
20260507093804 45 346 5.2 11.3 0.00 0.00 0.00 33 1021.4
20260507092804 45 335 0.9 4.3 0.00 0.00 0.00 33 1021.4
20260507091804 46 330 1.7 5.2 0.00 0.00 0.00 32 1021.5
20260507090803 47 343 1.7 5.2 0.00 0.00 0.00 31 1021.5
20260507090304 47 355 0.9 2.6 0.00 0.00 0.00 31 1021.5
20260507085804 47 355 0.9 2.6 0.00 0.00 0.00 31 1021.5
20260507085306 47 355 0.9 4.3 0.00 0.00 0.00 31 1021.4
20260507084803 48 0 2.6 4.3 0.00 0.00 0.00 31 1021.4
20260507084304 48 358 3.5 7.0 0.00 0.00 0.00 30 1021.3
20260507083804 48 13 1.7 5.2 0.00 0.00 0.00 31 1021.3
20260507082804 49 101 0.0 1.7 0.00 0.00 0.00 30 1021.3
20260507082306 49 94 0.0 0.9 0.00 0.00 0.00 29 1021.1
20260507081804 50 64 0.9 2.6 0.00 0.00 0.00 28 1021.0
20260507081303 50 335 2.6 8.7 0.00 0.00 0.00 28 1020.8
20260507080804 50 306 4.3 10.4 0.00 0.00 0.00 28 1020.7
20260507080304 50 315 5.2 8.7 0.00 0.00 0.00 28 1020.7
20260507075804 51 306 3.5 8.7 0.00 0.00 0.00 27 1020.7
20260507075306 51 327 4.3 8.7 0.00 0.00 0.00 27 1020.7
20260507074804 51 315 2.6 8.7 0.00 0.00 0.00 27 1020.6
20260507074304 51 319 5.2 11.3 0.00 0.00 0.00 27 1020.5
20260507073804 51 304 4.3 8.7 0.00 0.00 0.00 27 1020.4
20260507072804 51 319 6.1 11.3 0.00 0.00 0.00 26 1020.6
20260507072306 51 323 4.3 10.4 0.00 0.00 0.00 26 1020.4
20260507071805 51 319 7.0 13.0 0.00 0.00 0.00 26 1020.5
20260507070804 51 319 7.0 10.4 0.00 0.00 0.00 26 1020.4
20260507070304 51 317 6.1 12.2 0.00 0.00 0.00 26 1020.5
20260507065804 52 307 4.3 10.4 0.00 0.00 0.00 27 1020.6
20260507064303 52 305 3.5 10.4 0.00 0.00 0.00 26 1020.4
20260507063804 53 319 2.6 7.8 0.00 0.00 0.00 26 1020.5
20260507063304 53 319 2.6 7.8 0.00 0.00 0.00 26 1020.6
20260507062804 53 297 2.6 7.8 0.00 0.00 0.00 26 1020.5
20260507062306 53 309 2.6 8.7 0.00 0.00 0.00 26 1020.5
20260507061803 53 312 4.3 10.4 0.00 0.00 0.00 26 1020.5
20260507061303 53 303 4.3 10.4 0.00 0.00 0.00 26 1020.4
20260507060808 54 313 5.2 10.4 0.00 0.00 0.00 26 1020.2
20260507054804 54 298 4.3 10.4 0.00 0.00 0.00 26 1020.2
20260507054304 54 317 5.2 11.3 0.00 0.00 0.00 26 1020.1
20260507053804 54 326 6.1 13.9 0.00 0.00 0.00 25 1020.0
20260507053304 55 321 5.2 12.2 0.00 0.00 0.00 25 1020.0
20260507052306 55 311 6.1 11.3 0.00 0.00 0.00 25 1020.0
20260507051304 55 320 5.2 10.4 0.00 0.00 0.00 27 1020.0
20260507050804 54 322 5.2 11.3 0.00 0.00 0.00 28 1020.1
20260507050303 54 317 6.1 10.4 0.00 0.00 0.00 30 1020.0
20260507045803 54 325 4.3 11.3 0.00 0.00 0.00 32 1019.8
20260507044804 54 309 2.6 7.8 0.00 0.00 0.00 34 1019.5
20260507044304 54 297 1.7 8.7 0.00 0.00 0.00 35 1019.5